Regional Weather Roundup
Issued by NWS Albany, NY

Home | Current Version | Previous Version | Text Only | Print | Product List | Glossary On
Versions: 1 2 3 4 5 6 7 8 9 10 11 12 13 14 15 16 17 18 19 20 21 22 23 24 25 26 27 28 29 30 31 32 33 34 35 36 37 38 39 40 41 42 43 44 45 46 47 48 49 50
000
ASUS41 KALY 222310
RWRALY

NEW YORK STATE HOURLY WEATHER ROUNDUP
NATIONAL WEATHER SERVICE ALBANY NY
600 PM EST SAT NOV 22 2014

NOTE: "FAIR" INDICATES FEW OR NO CLOUDS BELOW 12,000 FEET WITH NO
SIGNIFICANT WEATHER AND/OR NO OBSTRUCTIONS TO VISIBILITY.

NYZ032-033-038>043-046>054-057>066-NYZ062>081-230000-
EAST


CITY           SKY/WX    TMP DP  RH WIND       PRES   REMARKS
ALBANY         LGT RAIN  39  15  37 S9        30.10S WCI  33
GLENS FALLS    CLOUDY    33  21  61 SW10      30.07F WCI  25
POUGHKEEPSIE   CLOUDY    42  12  29 SW9       30.20S
NEWBURGH       CLOUDY    39  14  35 W8        30.20S WCI  34
MONTGOMERY     CLOUDY    41  14  33 SW10      30.19R
WHITE PLAINS   CLOUDY    40  16  37 SW10G18   30.22S WCI  33
ISLIP          MOCLDY    43  21  41 SW10      30.24R
NEW YORK CITY  MOCLDY    43  18  36 SW12G20   30.26S
CENTRAL PARK   CLOUDY    43  17  35 VRB5      30.28R
$$

NYZ005>009-017-018-044>046-055-056-230000-
CENTRAL


CITY           SKY/WX    TMP DP  RH WIND       PRES   REMARKS
FULTON         LGT RAIN  35  32  88 SE3       30.01S
SYRACUSE       LGT RAIN  44  36  73 SW12      30.02F
ROME           LGT RAIN  33  30  88 E6        30.07S WCI  28
ELMIRA         CLOUDY    40  32  73 SW10      30.10S WCI  33
BINGHAMTON     CLOUDY    36  27  69 SW14G21   30.08S WCI  27
MONTICELLO     CLOUDY    34  18  51 SW5       30.17S WCI  30
$$

NYZ026>034-041>043-230000-
NORTH


CITY           SKY/WX    TMP DP  RH WIND       PRES   REMARKS
WATERTOWN      LGT RAIN  41  31  67 S12G20    29.96S
FORT DRUM      NOT AVBL
MASSENA        LGT RAIN  36  32  85 SW16G24   29.91F WCI  26
SARANAC LAKE   CLOUDY    33  30  88 SW17G29   29.90R WCI  22
PLATTSBURGH    LGT RAIN  34  19  54 S7        29.94R WCI  28
$$

NYZ001>004-010>016-019>021-230000-
WEST


CITY           SKY/WX    TMP DP  RH WIND       PRES   REMARKS
NIAGARA FALLS  CLOUDY    44  39  82 SW16G23   29.97F
BUFFALO        CLOUDY    40  37  89 S12       29.98S WCI  33
DUNKIRK        CLOUDY    42  39  89 S15G24    30.01S
JAMESTOWN      CLOUDY    36  34  93 S10G16    30.04R WCI  28
WELLSVILLE     CLOUDY    39  35  86 SW12G22   30.05R WCI  32
ROCHESTER      CLOUDY    41  38  89 SW17      29.97F
PENN YAN       CLOUDY    41  34  76 S18G24    30.02F
$$

             KEY
       WCI = WIND CHILL INDEX
       VSB = VISIBILITY
       HX  = HEAT INDEX
$$


USA.gov is the U.S. government's official web portal to all federal, state and local government web resources and services.